Flag for Brazil Weather past 2 weeks in São Paulo, São Paulo, Brazil

81 °F


Feels Like: 81 °F
Forecast: 67 / 75 °F
Wind: 12 mph from Northwest

Location: Sao Paulo Airport

Current Time: Oct 10, 2015 at 3:31:16 PM

Latest Report: Oct 10, 2015 at 3:00 PM

Visibility: 10 mi

Pressure: 30.07 "Hg (27.56 "Hg at 765m altitude)

Humidity: 51%

Dew point: 61 °F

Location of São PauloLocation

Historic Weather in São Paulo — Graph


São Paulo temperature yesterday

Maximum temperature yesterday: 84 °F (at 3:00 PM)
Minimum temperature yesterday: 66 °F (at 3:00 AM)
Average temperature yesterday: 75 °F

Past Weeks' High & Low Weather Summary

High91 °F (Oct 8, 1:00 PM)94% (Sep 25, 11:00 PM)30.95 "Hg (Sep 25, 11:00 PM)
Low57 °F (Oct 5, 9:00 PM)28% (Oct 8, 4:00 PM)29.89 "Hg (Sep 28, 4:00 AM)
Average70 °F74%30.07 "Hg
* Reported Sep 25 2:00 PM — Oct 10 2:00 PM, São Paulo, Weather by CustomWeather, © 2015

Note: Actual official high and low records may vary slightly from our data, if they occured in-between our weather recording intervals... More about our weather records


São Paulo weather history for previous 24 hours

Time TempWeatherWind HumidityBarometerVisibility
2:00 PM
Sat, Oct 10
81 °FSunny.13 mph54%30.07 "Hg10 mi
1:00 PM75 °FSunny.12 mph61%30.09 "Hg10 mi
12:00 PM73 °FSunny.14 mph65%30.15 "Hg10 mi
11:00 AM72 °FSunny.14 mph73%30.15 "Hg10 mi
10:00 AM70 °FLight rain. Clear.10 mph78%30.15 "HgN/A
9:00 AM68 °FLight rain. Clear.8 mph83%30.18 "HgN/A
8:00 AM68 °FLight rain. Partly sunny.9 mph83%30.18 "HgN/A
7:00 AM68 °FLight rain. Partly sunny.7 mph78%30.15 "HgN/A
6:00 AM68 °FLight rain. Partly sunny.2 mph78%30.12 "HgN/A
5:00 AM68 °FPassing clouds.2 mph78%30.09 "HgN/A
4:00 AM68 °FLight rain. Passing clouds.3 mph78%30.07 "HgN/A
3:00 AM68 °FLight rain. Passing clouds.8 mph78%30.07 "HgN/A
2:00 AM72 °FLight rain. Mostly cloudy.7 mph73%30.09 "HgN/A
1:00 AM72 °FOvercast.9 mph73%30.09 "HgN/A
12:03 AM72 °FClear.12 mph73%30.07 "Hg10 mi
11:03 PM
Fri, Oct 9
72 °FClear.7 mph73%30.04 "Hg10 mi
11:00 PM72 °FClear.6 mph73%30.04 "Hg10 mi
10:00 PM73 °FPassing clouds.7 mph74%30.07 "HgN/A
9:00 PM75 °FClear.9 mph65%30.04 "Hg10 mi
8:00 PM77 °FClear.10 mph57%30.04 "Hg10 mi
7:00 PM81 °FClear.7 mph51%29.98 "Hg10 mi
6:00 PM82 °FClear.6 mph45%30.01 "Hg10 mi
5:00 PM82 °FSunny.3 mph45%29.98 "Hg10 mi
4:00 PM84 °FPassing clouds.7 mph40%29.98 "HgN/A
3:00 PM84 °FPassing clouds.7 mph40%29.98 "HgN/A
Weather by CustomWeather, © 2015

See weather overviewHow to use our weather pages